Weather in Vylkovo

Russia / Altai Krai     53°04′44″N   81°25′44″E
temp.,
°C
wind,
m/s
gust,
m/s
humid.,
%
clouds,
%
prec.,
mm/h
press.,
hPa
HPBL,
m
7 march, sun
sun701:00−4sw81593100 0.7 1015652
04:00−5sw61394100 0.7 1015508
07:00−5sw51095100 1.4 1017430
10:00−5sw5895100 0.7 1019416
13:00−3sw4694100 1.1 1021489
16:00−2sw3693100 0.3 1021556
19:00−2sw2595100 0.3 1022344
22:00−3s2495100 0.0 1021121
8 march, mon
mon801:00−4sse4795100 0.0 1020178
04:00−7s4108970 0.0 1018228
07:00−7s5118685 0.0 1016276
10:00−6s61484100 0.0 1014395
13:00−3ssw71479100 0.0 1013527
16:00−1ssw81580100 0.0 1011811
19:000sw71489100 0.0 1012968
22:00−1wsw61296100 1.1 1016712
9 march, tue
tue901:00−10w499383 1.3 1021242
04:00−14wsw489659 0.0 1025187
07:00−17sw369566 0.0 102798
10:00−13ssw488772 0.0 1028229
13:00−8ssw478743 0.0 1027330
16:00−6ssw368623 0.0 1025350
19:00−8sse339126 0.0 102349
22:00−7sse389652 0.0 1021195
10 march, wed
wed1001:00−2s4109575 0.1 1019633
04:00−4s369565 0.0 1017134
07:00−6ssw369555 0.0 1016106
10:00−3s499496 0.0 1014279
13:000s499598 0.0 1012392
16:00+1s5109564 0.0 1009501
19:00+1s7178282 0.0 1005592
22:00+2s9207899 0.0 1002751
11 march, thu
thu1101:00+2ssw917100100 0.4 1001782
04:00−7wsw9179098 0.4 1006739
07:00−7sw7159199 0.6 1014689
10:00−7sw71488100 0.1 1016705
13:00−4sw8138399 0.1 1016936
16:00−3sw8149183 0.3 10161180
19:00−4w7119391 1.8 1017810
22:00−10wsw51487100 0.1 1021685